Weather History for Martha's Vineyard, MA

Change the Weather History Date:

Friday, September 28, 2012

  Actual Average Record
Temperature  
Mean Temperature 62 °F -  
Max Temperature 70 °F 68 °F 77 °F (1972)
Min Temperature 54 °F 50 °F 35 °F (1997)
Degree Days  
Heating Degree Days 4    
Growing Degree Days 12 (Base 50)    
Moisture  
Dew Point 56 °F    
Average Humidity 76    
Maximum Humidity 88    
Minimum Humidity 60    
Precipitation  
Precipitation 0.25 in - - ()
Sea Level Pressure  
Sea Level Pressure 30.09 in    
Wind  
Wind Speed 8 mph (ESE)    
Max Wind Speed 16 mph    
Max Gust Speed 21 mph    
Visibility 10 miles    
Events Rain    
Averages and records for this station are not official NWS values.
T = Trace of Precipitation, MM = Missing Value Source: NWS Daily Summary

Daily Weather History Graph

Daily Weather History Graph

Search for Another Location

Airport:

Trip Planner

Search our weather history database for the weather conditions in past years. The results will help you decide how hot, cold, wet, or windy it might be!

Date:

Astronomy

Sep. 28, 2012 Rise Set
Actual Time 6:36 AM EDT 6:28 PM EDT
Civil Twilight 6:08 AM EDT 6:56 PM EDT
Nautical Twilight 5:36 AM EDT 7:28 PM EDT
Astronomical Twilight 5:04 AM EDT 8:00 PM EDT
Moon 5:29 PM EDT (9/28) 5:03 AM EDT (9/28)
Length of Visible Light 12h 47m
Length of Day
11h 52m
Waxing Gibbous, 98% of the Moon is Illuminated
Sep 28
Waxing Gibbous
Sep 29
Full
Oct 8
Last Quarter
Oct 15
New
Oct 21
First Quarter

Hourly Weather History & Observations

Time (EDT) Temp. Dew Point Humidity Pressure Visibility Wind Dir Wind Speed Gust Speed Precip Events Conditions
12:53 AM 57.0 °F 50.0 °F 77% 30.22 in 10.0 mi East 3.5 mph - N/A   Overcast
1:53 AM 54.0 °F 48.0 °F 80% 30.23 in 10.0 mi Calm Calm - N/A   Partly Cloudy
2:53 AM 57.9 °F 48.0 °F 70% 30.22 in 10.0 mi East 5.8 mph - N/A   Partly Cloudy
3:53 AM 61.0 °F 46.9 °F 60% 30.22 in 10.0 mi East 5.8 mph - N/A   Overcast
4:53 AM 61.0 °F 46.9 °F 60% 30.19 in 10.0 mi East 10.4 mph - N/A   Partly Cloudy
5:53 AM 61.0 °F 48.0 °F 62% 30.21 in 10.0 mi ESE 6.9 mph - N/A   Partly Cloudy
6:53 AM 62.1 °F 48.9 °F 62% 30.22 in 10.0 mi ESE 6.9 mph - N/A   Overcast
7:53 AM 63.0 °F 50.0 °F 63% 30.21 in 10.0 mi ESE 10.4 mph 17.3 mph N/A   Mostly Cloudy
8:53 AM 64.0 °F 50.0 °F 60% 30.20 in 10.0 mi ESE 11.5 mph - N/A   Partly Cloudy
9:53 AM 64.9 °F 52.0 °F 63% 30.18 in 10.0 mi ESE 12.7 mph 19.6 mph N/A   Mostly Cloudy
10:53 AM 64.0 °F 52.0 °F 65% 30.19 in 10.0 mi SE 13.8 mph 20.7 mph N/A   Overcast
11:53 AM 64.9 °F 52.0 °F 63% 30.18 in 10.0 mi SE 13.8 mph 20.7 mph N/A   Overcast
12:53 PM 64.9 °F 53.1 °F 65% 30.15 in 10.0 mi ESE 11.5 mph - N/A   Overcast
1:53 PM 64.9 °F 54.0 °F 68% 30.11 in 10.0 mi ESE 12.7 mph 20.7 mph N/A   Overcast
3:53 PM 63.0 °F 57.0 °F 81% 30.06 in 5.0 mi ESE 16.1 mph - 0.07 in Rain Rain
4:21 PM 62.6 °F 57.2 °F 82% 30.05 in 8.0 mi ESE 10.4 mph 19.6 mph 0.05 in Rain Light Rain
4:53 PM 63.0 °F 57.9 °F 84% 30.05 in 10.0 mi ESE 12.7 mph - 0.07 in Rain Rain
5:53 PM 64.0 °F 59.0 °F 84% 30.04 in 10.0 mi ESE 10.4 mph - 0.04 in Rain Light Rain
6:40 PM 64.4 °F 60.8 °F 88% 30.02 in 10.0 mi ESE 9.2 mph - 0.00 in   Overcast
6:53 PM 64.0 °F 60.1 °F 87% 30.01 in 10.0 mi ESE 10.4 mph - 0.00 in   Mostly Cloudy
7:49 PM 64.4 °F 60.8 °F 88% 29.99 in 10.0 mi ESE 12.7 mph - N/A   Overcast
7:53 PM 64.9 °F 61.0 °F 87% 29.99 in 10.0 mi ESE 10.4 mph - N/A   Overcast
8:48 PM 66.2 °F 62.6 °F 88% 29.98 in 9.0 mi ESE 6.9 mph - 0.07 in Rain Light Rain
8:53 PM 66.0 °F 62.1 °F 87% 29.98 in 10.0 mi ESE 12.7 mph - 0.07 in   Overcast
10:28 PM 68.0 °F 64.4 °F 88% 29.94 in 10.0 mi SSE 8.1 mph - N/A   Overcast
10:53 PM 68.0 °F 64.0 °F 87% 29.94 in 10.0 mi SSE 10.4 mph - N/A   Overcast
11:17 PM 69.8 °F 64.4 °F 83% 29.93 in 10.0 mi South 9.2 mph - N/A   Overcast
11:24 PM 69.8 °F 64.4 °F 83% 29.93 in 10.0 mi South 8.1 mph - N/A   Overcast
11:53 PM 70.0 °F 66.0 °F 87% 29.93 in 10.0 mi South 8.1 mph - N/A   Overcast